Volver al catálogo

YAM-6

ActivoRadioaficionadoSSO
NORAD 59126·PAYLOAD·🇺🇸 United States

Lanzado Mar 4, 2024 desde Vandenberg Space Force Base

Loading…

Próximos Pases (próximas 24 horas)

TLE

ActualizadoSource: Space-Track

Época: Sep 14, 2026, 09:24 UTC

1 59126U 24043AE  26257.39167438  .00007142  00000-0  19046-3 0  9996
2 59126  97.5695  41.1707 0006600 269.8723  90.1765 15.38456661141026

Sigue YAM-6 en tiempo real con AllMySat

Download on the App Store